This is the latest recevied weather packets stored in our database for station/object AI5KP-13. If no packets are shown the sender has not sent any weather packets the latest 10 day(s).
| Time | Temp. | Humidity | Pressure | Rain* | Wind** | Luminosity | Snow |
|---|---|---|---|---|---|---|---|
| 1788140137 | 88° F | 44% | 760.6 mmHg | 0 in | - | 0 W/m² | - |
| 1788139832 | 89° F | 43% | 760.6 mmHg | 0 in | - | 0 W/m² | - |
| 1788139527 | 89° F | 43% | 760.4 mmHg | 0 in | - | 0 W/m² | - |
| 1788139226 | 89° F | 43% | 760.6 mmHg | 0 in | - | 0 W/m² | - |
| 1788138920 | 90° F | 42% | 760.3 mmHg | 0 in | - | 0 W/m² | - |
| 1788138616 | 90° F | 42% | 760.5 mmHg | 0 in | - | 0 W/m² | - |
| 1788138316 | 90° F | 41% | 760.3 mmHg | 0 in | - | 0 W/m² | - |
| 1788138013 | 91° F | 41% | 760.3 mmHg | 0 in | - | 1 W/m² | - |
| 1788137708 | 91° F | 40% | 760.3 mmHg | 0 in | - | 1 W/m² | - |
| 1788137407 | 92° F | 40% | 760.3 mmHg | 0 in | - | 2 W/m² | - |
| 1788137104 | 91° F | 39% | 760.3 mmHg | 0 in | - | 4 W/m² | - |
| 1788136799 | 92° F | 39% | 760.3 mmHg | 0 in | - | 7 W/m² | - |
| 1788136495 | 93° F | 38% | 760.5 mmHg | 0 in | - | 10 W/m² | - |
| 1788136194 | 93° F | 38% | 760.4 mmHg | 0 in | - | 13 W/m² | - |
| 1788135894 | 94° F | 37% | 760.3 mmHg | 0 in | - | 17 W/m² | - |
| 1788135589 | 94° F | 36% | 760.3 mmHg | 0 in | - | 21 W/m² | - |
| 1788135284 | 95° F | 36% | 760.4 mmHg | 0 in | - | 26 W/m² | - |
| 1788134981 | 96° F | 35% | 760.4 mmHg | 0 in | - | 30 W/m² | - |
| 1788134677 | 96° F | 35% | 760.5 mmHg | 0 in | - | 34 W/m² | - |
| 1788134375 | 96° F | 34% | 760.4 mmHg | 0 in | - | 38 W/m² | - |
| 1788134070 | 96° F | 35% | 760.4 mmHg | 0 in | - | 42 W/m² | - |
| 1788133766 | 96° F | 34% | 760.4 mmHg | 0 in | - | 49 W/m² | - |
| 1788133461 | 96° F | 34% | 760.6 mmHg | 0 in | - | 50 W/m² | - |
| 1788133157 | 96° F | 34% | 760.6 mmHg | 0 in | - | 53 W/m² | - |
| 1788132852 | 97° F | 33% | 760.6 mmHg | 0 in | - | 55 W/m² | - |
* Rain latest hour (hover to see other rain measurements)
** Current wind speed in m/s (hover to see current wind gust speed)